Location: Indian Tree Observatory
(39.4030°N, 104.5929°W)
Time: 02:21:22
(UTC-06:00)

ISS - Visible Passes

Search period start: 26 March 2019 00:00
Search period end: 05 April 2019 00:00
Orbit: 408 x 411 km, 51.6° (Epoch: 26 March)

Date Brightness Start Highest point End Pass type
(mag) Time Alt. Az. Time Alt. Az. Time Alt. Az.
26 Mar -1.2 20:10:31 10° WNW 20:12:53 18° NNW 20:15:16 10° NNE visible
27 Mar -0.8 20:58:42 10° NNW 20:59:30 11° N 21:00:18 10° N visible
28 Mar -1.0 20:07:00 10° NW 20:08:30 12° NNW 20:09:58 10° NNE visible
30 Mar -0.9 20:03:46 10° N 20:04:09 10° N 20:04:32 10° N visible
30 Mar -0.8 21:40:01 10° NNW 21:40:47 12° N 21:40:47 12° N visible
31 Mar -1.1 20:49:38 10° N 20:50:52 12° N 20:52:04 10° NNE visible
01 Apr -1.0 19:59:15 10° N 19:59:47 10° N 20:00:17 10° NNE visible
01 Apr -1.3 21:34:40 10° NNW 21:36:05 18° N 21:36:05 18° N visible
02 Apr -1.6 20:44:11 10° NNW 20:46:22 16° NNE 20:47:22 14° NE visible
02 Apr -0.2 22:20:05 10° NW 22:20:07 10° NW 22:20:07 10° NW visible
03 Apr -1.3 19:53:44 10° NNW 19:55:19 13° NNE 19:56:54 10° NE visible
03 Apr -2.1 21:29:24 10° NW 21:31:25 30° NNW 21:31:25 30° NNW visible
04 Apr -2.4 20:38:48 10° NNW 20:41:41 27° NNE 20:42:44 22° ENE visible
04 Apr -0.4 22:15:16 10° WNW 22:15:29 11° WNW 22:15:29 11° WNW visible
